Location: Napoli
(40.8639°N, 14.2562°E)
Time: 07:47:58
(UTC+02:00)

ISS - Pass Details

Date: 16 October 2017
Orbit: 401 x 408 km, 51.6° (Epoch: 17 October)

Event Time Altitude Azimuth Distance (km) Brightness Sun altitude
Rises 19:07:01 0° 301° (WNW) 2,322 1.0 -9.5°
Reaches altitude 10° 19:09:09 10° 294° (WNW) 1,461 0.1 -9.9°
Maximum altitude 19:12:16 41° 222° (SW) 595 -2.6 -10.4°
Drops below altitude 10° 19:15:22 10° 150° (SSE) 1,456 -1.3 -11.0°
Enters shadow 19:16:40 - 145° (SE) 1,977 -0.7 -11.3°
